Weather in Vesyoloe

Russia / Republic of Crimea     44°51′19″N   34°52′42″E
temp.,
°C
wind,
m/s
gust,
m/s
humid.,
%
clouds,
%
prec.,
mm/h
press.,
hPa
HPBL,
m
1 march, mon
mon100:00+5nnw577841 0.0 1024511
03:00+5n457662 0.0 1024492
06:00+4n2270100 0.0 1024411
09:00+5nne116790 0.0 1025376
12:00+6s226359 0.0 1026758
15:00+6sw226552 0.1 1026700
18:00+4nw128083 0.1 1027321
21:00+4nne457273 0.1 1029550
2 march, tue
tue200:00+4n457115 0.0 1030476
03:00+3n46737 0.0 1030555
06:00+4n56680 0.0 1030651
09:00+4n34620 0.0 1031584
12:00+5ssw22570 0.0 1030572
15:00+5sw66660 0.0 1029847
18:00+6sw877530 0.0 1027817
21:00+6wsw346840 0.0 1027451
3 march, wed
wed300:00+5wnw236567 0.0 1025313
03:00+5w566655 0.0 1023329
06:00+7wsw6107413 0.0 1021988
09:00+7nnw587356 0.1 1023914
12:00+5n578690 0.0 1024650
15:00+7nnw685866 0.1 10251326
18:00+7n57570 0.0 10261126
21:00+6nnw46590 0.0 1028741
4 march, thu
thu400:00+5nnw34620 0.0 1029384
03:00+5n22640 0.0 1028173
06:00+4ne11610 0.0 1028172
09:00+5sse23632 0.0 1027545
12:00+7sw566646 0.0 10261022
15:00+7sw787245 0.1 10241104
18:00+7sw897420 0.1 10221038
21:00+7sw897319 0.1 1022985
5 march, fri
fri500:00+6sw79698 0.0 1021955
03:00+6sw79744 0.0 1020867
06:00+6sw78750 0.0 1019742
09:00+7sw68750 0.0 1019768
12:00+7sw67770 0.0 1018732
15:00+8sw57760 0.0 1018609
18:00+8sw68790 0.0 1017642
21:00+8sw798310 0.0 1016592